Hourly Data Report for September 30, 2017

All times are specified in Local Standard Time (LST). Add 1 hour to adjust for Daylight Saving Time where and when it is observed.

LAC LA MARTRE
NORTHWEST TERRITORIES

63°08'01.070" N
117°14'41.050" W
271.30 m
2202678
71163
WMT

Download Data

Hourly Data (September 2017)
Hourly Data Report for September 30, 2017
Temp Definition
°C
Dew Point Temp Definition
°C
Rel Hum Definition
%
Wind Dir Definition
10's deg

Wind Spd Definition
km/h
Visibility Definition
km
Stn Press Definition
kPa
Hmdx Definition


Wind Chill Definition


Weather Definition


TIME
00:00 6.9 3.3 78 4 17   97.63     LegendNANA
01:00 6.2 3.2 81 3 16   97.68     LegendNANA
02:00 5.6 2.8 82 3 17   97.64     LegendNANA
03:00 5.2 2.7 84 4 12   97.65     LegendNANA
04:00 4.9 2.6 85 4 12   97.65     LegendNANA
05:00 4.7 2.8 87 3 16   97.65     LegendNANA
06:00 4.6 2.7 87 4 14   97.65     LegendNANA
07:00 4.3 2.9 91 4 16   97.58     LegendNANA
08:00 4.4 2.8 90 5 16   97.55     LegendNANA
09:00 4.5 2.9 89 6 15   97.53     LegendNANA
10:00 4.5 3.2 91 3 16   97.44     LegendNANA
11:00 4.3 3.3 93 2 21   97.39     LegendNANA
12:00 4.5 3.6 94 2 23   97.32     LegendNANA
13:00 4.7 3.8 94 2 21   97.34     LegendNANA
14:00 4.8 3.9 94 1 24   97.29     LegendNANA
15:00 4.8 3.9 94 1 24   97.28     LegendNANA
16:00 4.8 3.8 94 1 26   97.28     LegendNANA
17:00 4.8 3.9 94 1 24   97.29     LegendNANA
18:00 4.6 3.6 93 1 26   97.27     LegendNANA
19:00 3.9 2.6 92 35 25   97.35     LegendNANA
20:00 3.1 2.2 94 35 25   97.38     LegendNANA
21:00 1.8 1.1 95 35 21   97.42     LegendNANA
22:00 1.9 1.2 95 35 22   97.44     LegendNANA
23:00 2.2 1.6 95 34 17   97.50     LegendNANA

Notes on Data Quality.

Legend

  • E = Estimated
  • M = Missing
  • NA = Not Available
  • ‡ = Partner data that is not subject to review by the National Climate Archives
Date modified: